Time,TemperatureF,DewpointF,PressureIn,WindDirection,WindDirectionDegrees,WindSpeedMPH,WindSpeedGustMPH,Humidity,HourlyPrecipIn,Conditions,Clouds,dailyrainin,SoftwareType,DateUTC
2013-04-19 00:01:00,29.1,28.4,29.66,NNW,347,12.0,16.0,97,0.00,,,0.00,Wunderground v.1.15,2013-04-19 05:01:00,
2013-04-19 00:07:00,29.1,28.4,29.66,NW,324,14.0,18.0,97,0.00,,,0.00,Wunderground v.1.15,2013-04-19 05:07:00,
2013-04-19 00:12:00,29.0,28.3,29.66,NNW,342,14.0,19.0,97,0.00,,,0.00,Wunderground v.1.15,2013-04-19 05:12:00,
2013-04-19 00:17:00,29.0,28.3,29.66,NNW,337,15.0,19.0,97,0.00,,,0.00,Wunderground v.1.15,2013-04-19 05:17:00,
2013-04-19 00:23:00,29.0,28.3,29.66,NW,320,13.0,19.0,97,0.00,,,0.00,Wunderground v.1.15,2013-04-19 05:23:00,
2013-04-19 00:28:00,28.8,28.1,29.66,NW,312,15.0,19.0,97,0.00,,,0.00,Wunderground v.1.15,2013-04-19 05:28:00,
2013-04-19 00:33:00,28.8,28.1,29.66,NNW,328,14.0,24.0,97,0.00,,,0.00,Wunderground v.1.15,2013-04-19 05:33:00,
2013-04-19 00:38:00,28.8,28.1,29.66,NNW,342,18.0,24.0,97,0.00,,,0.00,Wunderground v.1.15,2013-04-19 05:38:00,
2013-04-19 00:44:00,28.8,28.1,29.66,NW,319,23.0,23.0,97,0.00,,,0.00,Wunderground v.1.15,2013-04-19 05:44:00,
2013-04-19 00:49:00,28.7,28.0,29.66,NNW,331,17.0,24.0,97,0.00,,,0.00,Wunderground v.1.15,2013-04-19 05:49:00,
2013-04-19 00:54:00,28.7,28.0,29.66,NW,316,16.0,16.0,97,0.00,,,0.00,Wunderground v.1.15,2013-04-19 05:54:00,
2013-04-19 01:00:00,28.7,28.0,29.65,NW,322,16.0,16.0,97,0.00,,,0.00,Wunderground v.1.15,2013-04-19 06:00:00,
2013-04-19 01:06:00,28.5,27.5,29.65,WNW,298,15.0,22.0,96,0.00,,,0.00,Wunderground v.1.15,2013-04-19 06:06:00,
2013-04-19 01:12:00,28.5,27.5,29.65,NW,311,19.0,19.0,96,0.00,,,0.00,Wunderground v.1.15,2013-04-19 06:12:00,
2013-04-19 01:17:00,28.4,27.4,29.65,WNW,303,15.0,21.0,96,0.00,,,0.00,Wunderground v.1.15,2013-04-19 06:17:00,
2013-04-19 01:22:00,28.2,27.2,29.65,NNW,341,11.0,17.0,96,0.00,,,0.00,Wunderground v.1.15,2013-04-19 06:22:00,
2013-04-19 01:27:00,28.1,27.1,29.65,NW,315,12.0,18.0,96,0.00,,,0.00,Wunderground v.1.15,2013-04-19 06:27:00,
2013-04-19 01:33:00,28.1,27.1,29.65,NW,323,11.0,15.0,96,0.00,,,0.00,Wunderground v.1.15,2013-04-19 06:33:00,
2013-04-19 01:38:00,27.9,26.9,29.65,NW,309,16.0,21.0,96,0.00,,,0.00,Wunderground v.1.15,2013-04-19 06:38:00,
2013-04-19 01:43:00,27.9,26.9,29.65,NW,315,14.0,17.0,96,0.00,,,0.00,Wunderground v.1.15,2013-04-19 06:43:00,
2013-04-19 01:49:00,27.8,26.8,29.65,NNW,331,21.0,22.0,96,0.00,,,0.00,Wunderground v.1.15,2013-04-19 06:49:00,
2013-04-19 01:54:00,27.6,26.6,29.65,NW,304,18.0,18.0,96,0.00,,,0.00,Wunderground v.1.15,2013-04-19 06:54:00,
2013-04-19 01:59:00,27.3,26.3,29.65,NW,319,13.0,18.0,96,0.00,,,0.00,Wunderground v.1.15,2013-04-19 06:59:00,
2013-04-19 02:04:00,27.2,26.2,29.65,NW,323,14.0,22.0,96,0.00,,,0.00,Wunderground v.1.15,2013-04-19 07:04:00,
2013-04-19 02:09:00,27.0,25.8,29.65,NNW,333,17.0,22.0,95,0.00,,,0.00,Wunderground v.1.15,2013-04-19 07:09:00,
2013-04-19 02:14:00,26.9,25.7,29.65,NNW,334,17.0,24.0,95,0.00,,,0.00,Wunderground v.1.15,2013-04-19 07:14:00,
2013-04-19 02:19:00,26.7,25.5,29.65,NNW,330,12.0,24.0,95,0.00,,,0.00,Wunderground v.1.15,2013-04-19 07:19:00,
2013-04-19 02:24:00,26.7,25.5,29.65,NNW,331,19.0,21.0,95,0.00,,,0.00,Wunderground v.1.15,2013-04-19 07:24:00,
2013-04-19 02:29:00,26.6,25.4,29.65,NW,326,11.0,21.0,95,0.00,,,0.00,Wunderground v.1.15,2013-04-19 07:29:00,
2013-04-19 02:34:00,26.4,25.2,29.65,NNW,343,9.0,18.0,95,0.00,,,0.00,Wunderground v.1.15,2013-04-19 07:34:00,
2013-04-19 02:39:00,26.1,24.6,29.65,NW,316,14.0,20.0,94,0.00,,,0.00,Wunderground v.1.15,2013-04-19 07:39:00,
2013-04-19 02:44:00,26.0,24.5,29.65,NNW,333,10.0,18.0,94,0.00,,,0.00,Wunderground v.1.15,2013-04-19 07:44:00,
2013-04-19 02:49:00,26.0,24.5,29.65,NNW,327,12.0,20.0,94,0.00,,,0.00,Wunderground v.1.15,2013-04-19 07:49:00,
2013-04-19 02:54:00,25.8,24.3,29.65,NW,317,10.0,22.0,94,0.00,,,0.00,Wunderground v.1.15,2013-04-19 07:54:00,
2013-04-19 02:59:00,25.8,24.3,29.65,NW,316,15.0,22.0,94,0.00,,,0.00,Wunderground v.1.15,2013-04-19 07:59:00,
2013-04-19 03:04:00,25.7,24.2,29.65,NW,317,10.0,19.0,94,0.00,,,0.00,Wunderground v.1.15,2013-04-19 08:04:00,
2013-04-19 03:09:00,25.7,24.0,29.65,NNW,336,13.0,19.0,93,0.00,,,0.00,Wunderground v.1.15,2013-04-19 08:09:00,
2013-04-19 03:14:00,25.6,23.9,29.65,NW,317,13.0,20.0,93,0.00,,,0.00,Wunderground v.1.15,2013-04-19 08:14:00,
2013-04-19 03:19:00,25.6,23.9,29.65,WNW,302,17.0,20.0,93,0.00,,,0.00,Wunderground v.1.15,2013-04-19 08:19:00,
2013-04-19 03:24:00,25.6,23.9,29.65,NNW,330,11.0,18.0,93,0.00,,,0.00,Wunderground v.1.15,2013-04-19 08:24:00,
2013-04-19 03:29:00,25.4,23.4,29.65,NW,313,11.0,19.0,92,0.00,,,0.00,Wunderground v.1.15,2013-04-19 08:29:00,
2013-04-19 03:34:00,25.4,23.4,29.65,NNW,333,13.0,14.0,92,0.00,,,0.00,Wunderground v.1.15,2013-04-19 08:34:00,
2013-04-19 03:39:00,25.1,23.1,29.65,NNW,332,8.0,16.0,92,0.00,,,0.00,Wunderground v.1.15,2013-04-19 08:39:00,
2013-04-19 03:44:00,25.0,23.0,29.65,NW,319,12.0,17.0,92,0.00,,,0.00,Wunderground v.1.15,2013-04-19 08:44:00,
2013-04-19 03:49:00,24.8,22.8,29.65,NW,324,7.0,17.0,92,0.00,,,0.00,Wunderground v.1.15,2013-04-19 08:49:00,
2013-04-19 03:54:00,24.8,22.8,29.65,NW,319,7.0,17.0,92,0.00,,,0.00,Wunderground v.1.15,2013-04-19 08:54:00,
2013-04-19 03:59:00,24.7,22.4,29.65,NNW,347,10.0,17.0,91,0.00,,,0.00,Wunderground v.1.15,2013-04-19 08:59:00,
2013-04-19 04:04:00,24.5,22.2,29.66,NW,321,11.0,14.0,91,0.00,,,0.00,Wunderground v.1.15,2013-04-19 09:04:00,
2013-04-19 04:09:00,24.4,22.2,29.66,NW,304,11.0,17.0,91,0.00,,,0.00,Wunderground v.1.15,2013-04-19 09:09:00,
2013-04-19 04:14:00,24.4,22.2,29.66,NW,325,13.0,18.0,91,0.00,,,0.00,Wunderground v.1.15,2013-04-19 09:14:00,
2013-04-19 04:19:00,24.4,22.2,29.66,NNW,331,8.0,18.0,91,0.00,,,0.00,Wunderground v.1.15,2013-04-19 09:19:00,
2013-04-19 04:24:00,24.4,21.9,29.66,NNW,331,9.0,19.0,90,0.00,,,0.00,Wunderground v.1.15,2013-04-19 09:24:00,
2013-04-19 04:29:00,24.4,21.9,29.66,NW,305,13.0,19.0,90,0.00,,,0.00,Wunderground v.1.15,2013-04-19 09:29:00,
2013-04-19 04:34:00,24.4,21.9,29.66,NNW,335,15.0,18.0,90,0.00,,,0.00,Wunderground v.1.15,2013-04-19 09:34:00,
2013-04-19 04:39:00,24.2,21.7,29.66,NW,313,15.0,19.0,90,0.00,,,0.00,Wunderground v.1.15,2013-04-19 09:39:00,
2013-04-19 04:44:00,24.4,21.9,29.66,NW,318,12.0,19.0,90,0.00,,,0.00,Wunderground v.1.15,2013-04-19 09:44:00,
2013-04-19 04:49:00,24.4,21.6,29.66,NNW,327,15.0,19.0,89,0.00,,,0.00,Wunderground v.1.15,2013-04-19 09:49:00,
2013-04-19 04:54:00,24.4,21.6,29.66,NNW,327,12.0,17.0,89,0.00,,,0.00,Wunderground v.1.15,2013-04-19 09:54:00,
2013-04-19 04:59:00,24.4,21.6,29.66,NNW,329,14.0,17.0,89,0.00,,,0.00,Wunderground v.1.15,2013-04-19 09:59:00,
2013-04-19 05:04:00,24.4,21.6,29.66,NW,318,7.0,17.0,89,0.00,,,0.00,Wunderground v.1.15,2013-04-19 10:04:00,
2013-04-19 05:09:00,24.2,21.4,29.66,WNW,300,7.0,17.0,89,0.00,,,0.00,Wunderground v.1.15,2013-04-19 10:09:00,
2013-04-19 05:14:00,24.1,21.1,29.66,WNW,300,8.0,12.0,88,0.00,,,0.00,Wunderground v.1.15,2013-04-19 10:14:00,
2013-04-19 05:19:00,23.9,20.9,29.67,NW,325,15.0,15.0,88,0.00,,,0.00,Wunderground v.1.15,2013-04-19 10:19:00,
2013-04-19 05:24:00,23.9,20.9,29.67,NW,309,6.0,13.0,88,0.00,,,0.00,Wunderground v.1.15,2013-04-19 10:24:00,
2013-04-19 05:29:00,23.8,20.8,29.67,NW,304,7.0,13.0,88,0.00,,,0.00,Wunderground v.1.15,2013-04-19 10:29:00,
2013-04-19 05:34:00,23.8,20.8,29.67,NW,315,9.0,16.0,88,0.00,,,0.00,Wunderground v.1.15,2013-04-19 10:34:00,
2013-04-19 05:39:00,23.8,20.8,29.67,NNW,331,8.0,16.0,88,0.00,,,0.00,Wunderground v.1.15,2013-04-19 10:39:00,
2013-04-19 05:44:00,23.8,20.5,29.67,NW,306,6.0,16.0,87,0.00,,,0.00,Wunderground v.1.15,2013-04-19 10:44:00,
2013-04-19 05:49:00,23.8,20.5,29.67,WNW,303,8.0,16.0,87,0.00,,,0.00,Wunderground v.1.15,2013-04-19 10:49:00,
2013-04-19 05:54:00,23.8,20.5,29.67,NNW,330,13.0,17.0,87,0.00,,,0.00,Wunderground v.1.15,2013-04-19 10:54:00,
2013-04-19 05:59:00,23.6,20.0,29.67,NW,324,6.0,17.0,86,0.00,,,0.00,Wunderground v.1.15,2013-04-19 10:59:00,
2013-04-19 06:04:00,23.5,19.9,29.67,WNW,298,8.0,14.0,86,0.00,,,0.00,Wunderground v.1.15,2013-04-19 11:04:00,
2013-04-19 06:09:00,23.3,19.7,29.67,NW,308,9.0,14.0,86,0.00,,,0.00,Wunderground v.1.15,2013-04-19 11:09:00,
2013-04-19 06:14:00,23.2,19.6,29.68,NW,305,15.0,15.0,86,0.00,,,0.00,Wunderground v.1.15,2013-04-19 11:14:00,
2013-04-19 06:19:00,23.0,19.2,29.68,WNW,303,5.0,15.0,85,0.00,,,0.00,Wunderground v.1.15,2013-04-19 11:19:00,
2013-04-19 06:25:00,22.9,19.1,29.68,NNW,333,7.0,13.0,85,0.00,,,0.00,Wunderground v.1.15,2013-04-19 11:25:00,
2013-04-19 06:30:00,22.9,19.1,29.69,NW,324,10.0,10.0,85,0.00,,,0.00,Wunderground v.1.15,2013-04-19 11:30:00,
2013-04-19 06:35:00,22.9,18.2,29.69,NW,322,10.0,13.0,82,0.00,,,0.00,Wunderground v.1.15,2013-04-19 11:35:00,
2013-04-19 06:40:00,22.9,19.1,29.69,WNW,303,7.0,8.0,85,0.00,,,0.00,Wunderground v.1.15,2013-04-19 11:40:00,
2013-04-19 06:45:00,22.9,19.1,29.69,NW,321,11.0,13.0,85,0.00,,,0.00,Wunderground v.1.15,2013-04-19 11:45:00,
2013-04-19 06:50:00,23.0,19.2,29.69,WNW,283,10.0,10.0,85,0.00,,,0.00,Wunderground v.1.15,2013-04-19 11:50:00,
2013-04-19 06:55:00,23.0,19.2,29.69,NW,317,12.0,13.0,85,0.00,,,0.00,Wunderground v.1.15,2013-04-19 11:55:00,
2013-04-19 07:00:00,23.0,19.2,29.70,NW,307,6.0,8.0,85,0.00,,,0.00,Wunderground v.1.15,2013-04-19 12:00:00,
2013-04-19 07:05:00,23.2,19.4,29.70,NW,306,9.0,16.0,85,0.00,,,0.00,Wunderground v.1.15,2013-04-19 12:05:00,
2013-04-19 07:10:00,23.2,19.4,29.70,West,277,12.0,12.0,85,0.00,,,0.00,Wunderground v.1.15,2013-04-19 12:10:00,
2013-04-19 07:15:00,23.2,19.1,29.70,WNW,294,9.0,14.0,84,0.00,,,0.00,Wunderground v.1.15,2013-04-19 12:15:00,
2013-04-19 07:20:00,23.3,19.2,29.70,NW,323,11.0,11.0,84,0.00,,,0.00,Wunderground v.1.15,2013-04-19 12:20:00,
2013-04-19 07:25:00,23.3,19.2,29.70,WNW,291,12.0,13.0,84,0.00,,,0.00,Wunderground v.1.15,2013-04-19 12:25:00,
2013-04-19 07:30:00,23.3,19.2,29.71,WNW,302,8.0,9.0,84,0.00,,,0.00,Wunderground v.1.15,2013-04-19 12:30:00,
2013-04-19 07:35:00,23.5,19.4,29.71,NW,315,11.0,14.0,84,0.00,,,0.00,Wunderground v.1.15,2013-04-19 12:35:00,
2013-04-19 07:40:00,23.5,19.4,29.71,West,268,5.0,9.0,84,0.00,,,0.00,Wunderground v.1.15,2013-04-19 12:40:00,
2013-04-19 07:45:00,23.6,19.5,29.71,WNW,298,9.0,15.0,84,0.00,,,0.00,Wunderground v.1.15,2013-04-19 12:45:00,
2013-04-19 07:50:00,23.8,19.4,29.71,NNW,333,8.0,11.0,83,0.00,,,0.00,Wunderground v.1.15,2013-04-19 12:50:00,
2013-04-19 07:55:00,23.9,19.5,29.71,NW,313,8.0,15.0,83,0.00,,,0.00,Wunderground v.1.15,2013-04-19 12:55:00,
2013-04-19 08:00:00,24.1,19.7,29.71,WNW,300,9.0,12.0,83,0.00,,,0.00,Wunderground v.1.15,2013-04-19 13:00:00,
2013-04-19 08:05:00,24.2,19.8,29.71,WNW,293,12.0,15.0,83,0.00,,,0.00,Wunderground v.1.15,2013-04-19 13:05:00,
2013-04-19 08:10:00,24.4,19.7,29.71,NW,304,11.0,13.0,82,0.00,,,0.00,Wunderground v.1.15,2013-04-19 13:10:00,
2013-04-19 08:15:00,24.4,19.7,29.71,NNW,334,9.0,15.0,82,0.00,,,0.00,Wunderground v.1.15,2013-04-19 13:15:00,
2013-04-19 08:20:00,24.5,19.8,29.71,West,275,8.0,15.0,82,0.00,,,0.00,Wunderground v.1.15,2013-04-19 13:20:00,
2013-04-19 08:25:00,24.7,20.0,29.71,NW,317,9.0,16.0,82,0.00,,,0.00,Wunderground v.1.15,2013-04-19 13:25:00,
2013-04-19 08:30:00,24.8,20.1,29.72,WNW,300,5.0,11.0,82,0.00,,,0.00,Wunderground v.1.15,2013-04-19 13:30:00,
2013-04-19 08:35:00,25.0,20.3,29.72,NW,321,12.0,17.0,82,0.00,,,0.00,Wunderground v.1.15,2013-04-19 13:35:00,
2013-04-19 08:40:00,25.1,20.4,29.72,NNW,345,9.0,14.0,82,0.00,,,0.00,Wunderground v.1.15,2013-04-19 13:40:00,
2013-04-19 08:45:00,25.3,20.6,29.72,NW,304,13.0,18.0,82,0.00,,,0.00,Wunderground v.1.15,2013-04-19 13:45:00,
2013-04-19 08:50:00,25.4,20.7,29.72,WNW,299,11.0,13.0,82,0.00,,,0.00,Wunderground v.1.15,2013-04-19 13:50:00,
2013-04-19 08:55:00,25.4,20.7,29.72,WNW,292,10.0,16.0,82,0.00,,,0.00,Wunderground v.1.15,2013-04-19 13:55:00,
2013-04-19 09:00:00,25.4,20.4,29.72,WNW,303,7.0,12.0,81,0.00,,,0.00,Wunderground v.1.15,2013-04-19 14:00:00,
2013-04-19 09:05:00,25.7,20.7,29.72,NW,319,15.0,19.0,81,0.00,,,0.00,Wunderground v.1.15,2013-04-19 14:05:00,
2013-04-19 09:10:00,26.0,21.0,29.72,NW,325,10.0,16.0,81,0.00,,,0.00,Wunderground v.1.15,2013-04-19 14:10:00,
2013-04-19 09:16:00,26.0,21.0,29.72,NW,315,13.0,16.0,81,0.00,,,0.00,Wunderground v.1.15,2013-04-19 14:16:00,
2013-04-19 09:21:00,25.8,20.8,29.72,NNW,333,10.0,15.0,81,0.00,,,0.00,Wunderground v.1.15,2013-04-19 14:21:00,
2013-04-19 09:26:00,26.0,21.0,29.72,NW,324,17.0,19.0,81,0.00,,,0.00,Wunderground v.1.15,2013-04-19 14:26:00,
2013-04-19 09:31:00,26.3,21.3,29.73,NW,322,10.0,16.0,81,0.00,,,0.00,Wunderground v.1.15,2013-04-19 14:31:00,
2013-04-19 09:36:00,26.4,21.4,29.73,West,280,9.0,16.0,81,0.00,,,0.00,Wunderground v.1.15,2013-04-19 14:36:00,
2013-04-19 09:41:00,26.4,21.4,29.73,NW,324,14.0,15.0,81,0.00,,,0.00,Wunderground v.1.15,2013-04-19 14:41:00,
2013-04-19 09:46:00,26.7,21.7,29.73,NW,321,11.0,18.0,81,0.00,,,0.00,Wunderground v.1.15,2013-04-19 14:46:00,
2013-04-19 09:51:00,27.2,21.8,29.73,NW,326,11.0,17.0,80,0.00,,,0.00,Wunderground v.1.15,2013-04-19 14:51:00,
2013-04-19 09:56:00,27.5,22.4,29.73,NW,324,14.0,19.0,81,0.00,,,0.00,Wunderground v.1.15,2013-04-19 14:56:00,
2013-04-19 10:01:00,27.6,22.2,29.73,NNW,338,11.0,16.0,80,0.00,,,0.00,Wunderground v.1.15,2013-04-19 15:01:00,
2013-04-19 10:06:00,27.8,22.4,29.73,WNW,292,11.0,17.0,80,0.00,,,0.00,Wunderground v.1.15,2013-04-19 15:06:00,
2013-04-19 10:11:00,27.9,22.5,29.73,WNW,300,13.0,17.0,80,0.00,,,0.00,Wunderground v.1.15,2013-04-19 15:11:00,
2013-04-19 10:16:00,28.1,23.0,29.74,NW,308,17.0,17.0,81,0.00,,,0.00,Wunderground v.1.15,2013-04-19 15:16:00,
2013-04-19 10:21:00,28.1,22.7,29.74,WNW,301,14.0,15.0,80,0.00,,,0.00,Wunderground v.1.15,2013-04-19 15:21:00,
2013-04-19 10:26:00,28.2,23.1,29.74,NW,306,9.0,15.0,81,0.00,,,0.00,Wunderground v.1.15,2013-04-19 15:26:00,
2013-04-19 10:31:00,28.5,23.1,29.75,WNW,291,10.0,13.0,80,0.00,,,0.00,Wunderground v.1.15,2013-04-19 15:31:00,
2013-04-19 10:36:00,28.5,22.8,29.75,NW,319,17.0,18.0,79,0.00,,,0.00,Wunderground v.1.15,2013-04-19 15:36:00,
2013-04-19 10:41:00,28.7,23.0,29.75,WNW,300,11.0,17.0,79,0.00,,,0.00,Wunderground v.1.15,2013-04-19 15:41:00,
2013-04-19 10:46:00,28.8,23.1,29.75,NW,311,7.0,19.0,79,0.00,,,0.00,Wunderground v.1.15,2013-04-19 15:46:00,
2013-04-19 10:51:00,29.0,23.0,29.75,NNW,344,9.0,16.0,78,0.00,,,0.00,Wunderground v.1.15,2013-04-19 15:51:00,
2013-04-19 10:56:00,29.0,23.0,29.75,NW,322,19.0,19.0,78,0.00,,,0.00,Wunderground v.1.15,2013-04-19 15:56:00,
2013-04-19 11:01:00,28.8,22.8,29.76,NW,325,14.0,19.0,78,0.00,,,0.00,Wunderground v.1.15,2013-04-19 16:01:00,
2013-04-19 11:06:00,29.0,22.7,29.76,NW,313,12.0,21.0,77,0.00,,,0.00,Wunderground v.1.15,2013-04-19 16:06:00,
2013-04-19 11:11:00,29.4,23.4,29.76,NW,307,13.0,19.0,78,0.00,,,0.00,Wunderground v.1.15,2013-04-19 16:11:00,
2013-04-19 11:16:00,29.8,23.5,29.76,NW,322,15.0,20.0,77,0.00,,,0.00,Wunderground v.1.15,2013-04-19 16:16:00,
2013-04-19 11:21:00,29.8,23.5,29.76,NNW,334,17.0,20.0,77,0.00,,,0.00,Wunderground v.1.15,2013-04-19 16:21:00,
2013-04-19 11:26:00,30.0,23.0,29.76,NNW,340,13.0,25.0,75,0.00,,,0.00,Wunderground v.1.15,2013-04-19 16:26:00,
2013-04-19 11:31:00,30.0,22.7,29.77,NNW,328,14.0,25.0,74,0.00,,,0.00,Wunderground v.1.15,2013-04-19 16:31:00,
2013-04-19 11:36:00,29.8,22.2,29.77,NNW,342,19.0,26.0,73,0.00,,,0.00,Wunderground v.1.15,2013-04-19 16:36:00,
2013-04-19 11:41:00,29.8,22.5,29.77,NNW,334,12.0,22.0,74,0.00,,,0.00,Wunderground v.1.15,2013-04-19 16:41:00,
2013-04-19 11:46:00,29.8,22.2,29.78,NNW,329,17.0,25.0,73,0.00,,,0.00,Wunderground v.1.15,2013-04-19 16:46:00,
2013-04-19 11:51:00,30.1,22.8,29.78,WNW,297,22.0,22.0,74,0.00,,,0.00,Wunderground v.1.15,2013-04-19 16:51:00,
2013-04-19 11:56:00,29.8,22.2,29.78,NNW,344,17.0,25.0,73,0.00,,,0.00,Wunderground v.1.15,2013-04-19 16:56:00,
2013-04-19 12:01:00,29.7,22.1,29.78,NW,319,13.0,23.0,73,0.00,,,0.00,Wunderground v.1.15,2013-04-19 17:01:00,
2013-04-19 12:06:00,29.8,22.2,29.78,NW,325,18.0,30.0,73,0.00,,,0.00,Wunderground v.1.15,2013-04-19 17:06:00,
2013-04-19 12:11:00,29.8,21.9,29.78,NNW,346,13.0,28.0,72,0.00,,,0.00,Wunderground v.1.15,2013-04-19 17:11:00,
2013-04-19 12:16:00,30.3,22.4,29.79,NNW,330,15.0,28.0,72,0.00,,,0.00,Wunderground v.1.15,2013-04-19 17:16:00,
2013-04-19 12:21:00,30.3,22.7,29.79,NW,306,19.0,22.0,73,0.00,,,0.00,Wunderground v.1.15,2013-04-19 17:21:00,
2013-04-19 12:26:00,30.3,23.0,29.79,NW,313,20.0,25.0,74,0.00,,,0.00,Wunderground v.1.15,2013-04-19 17:26:00,
2013-04-19 12:31:00,30.4,22.8,29.80,North,351,14.0,23.0,73,0.00,,,0.00,Wunderground v.1.15,2013-04-19 17:31:00,
2013-04-19 12:37:00,30.3,22.4,29.80,NNW,343,14.0,26.0,72,0.00,,,0.00,Wunderground v.1.15,2013-04-19 17:37:00,
2013-04-19 12:42:00,30.4,22.4,29.80,NNW,337,16.0,27.0,72,0.00,,,0.01,Wunderground v.1.15,2013-04-19 17:42:00,
2013-04-19 12:47:00,30.4,22.4,29.80,NNW,333,24.0,27.0,72,0.00,,,0.01,Wunderground v.1.15,2013-04-19 17:47:00,
2013-04-19 12:52:00,30.4,22.1,29.80,NW,323,19.0,24.0,71,0.00,,,0.01,Wunderground v.1.15,2013-04-19 17:52:00,
2013-04-19 12:57:00,30.7,22.4,29.80,NW,316,19.0,24.0,71,0.00,,,0.01,Wunderground v.1.15,2013-04-19 17:57:00,
2013-04-19 13:02:00,31.0,23.0,29.80,NNW,342,13.0,18.0,72,0.00,,,0.01,Wunderground v.1.15,2013-04-19 18:02:00,
2013-04-19 13:07:00,31.0,22.4,29.80,NW,310,19.0,25.0,70,0.00,,,0.01,Wunderground v.1.15,2013-04-19 18:07:00,
2013-04-19 13:12:00,31.0,22.0,29.80,WNW,301,20.0,28.0,69,0.00,,,0.01,Wunderground v.1.15,2013-04-19 18:12:00,
2013-04-19 13:17:00,31.0,21.3,29.81,North,351,13.0,28.0,67,0.00,,,0.01,Wunderground v.1.15,2013-04-19 18:17:00,
2013-04-19 13:22:00,30.9,21.9,29.81,NNW,348,18.0,27.0,69,0.00,,,0.01,Wunderground v.1.15,2013-04-19 18:22:00,
2013-04-19 13:27:00,30.9,22.3,29.81,North,351,13.0,28.0,70,0.00,,,0.01,Wunderground v.1.15,2013-04-19 18:27:00,
2013-04-19 13:32:00,30.9,22.3,29.81,NW,315,12.0,22.0,70,0.00,,,0.01,Wunderground v.1.15,2013-04-19 18:32:00,
2013-04-19 13:37:00,31.2,22.2,29.81,NW,314,19.0,23.0,69,0.00,,,0.01,Wunderground v.1.15,2013-04-19 18:37:00,
2013-04-19 13:42:00,31.0,21.7,29.81,North,351,17.0,25.0,68,0.00,,,0.02,Wunderground v.1.15,2013-04-19 18:42:00,
2013-04-19 13:47:00,31.2,21.9,29.82,NNW,338,18.0,28.0,68,0.00,,,0.02,Wunderground v.1.15,2013-04-19 18:47:00,
2013-04-19 13:52:00,31.2,22.2,29.82,NNW,332,15.0,22.0,69,0.00,,,0.02,Wunderground v.1.15,2013-04-19 18:52:00,
2013-04-19 13:57:00,31.5,22.8,29.82,NW,309,21.0,26.0,70,0.00,,,0.02,Wunderground v.1.15,2013-04-19 18:57:00,
2013-04-19 14:02:00,31.3,22.3,29.83,NW,319,11.0,26.0,69,0.00,,,0.02,Wunderground v.1.15,2013-04-19 19:02:00,
2013-04-19 14:07:00,31.3,22.3,29.83,North,351,16.0,26.0,69,0.00,,,0.02,Wunderground v.1.15,2013-04-19 19:07:00,
2013-04-19 14:12:00,31.5,23.2,29.83,NW,309,15.0,25.0,71,0.00,,,0.02,Wunderground v.1.15,2013-04-19 19:12:00,
2013-04-19 14:17:00,31.6,22.9,29.83,NNW,333,17.0,25.0,70,0.00,,,0.02,Wunderground v.1.15,2013-04-19 19:17:00,
2013-04-19 14:22:00,31.3,22.6,29.83,NNW,336,17.0,27.0,70,0.00,,,0.02,Wunderground v.1.15,2013-04-19 19:22:00,
2013-04-19 14:27:00,31.5,23.2,29.83,NNW,328,15.0,27.0,71,0.00,,,0.02,Wunderground v.1.15,2013-04-19 19:27:00,
2013-04-19 14:32:00,31.3,23.0,29.85,NNW,348,14.0,25.0,71,0.00,,,0.02,Wunderground v.1.15,2013-04-19 19:32:00,
2013-04-19 14:37:00,31.3,22.3,29.85,NW,326,16.0,27.0,69,0.00,,,0.02,Wunderground v.1.15,2013-04-19 19:37:00,
2013-04-19 14:42:00,31.6,22.6,29.85,NNW,334,13.0,25.0,69,0.00,,,0.02,Wunderground v.1.15,2013-04-19 19:42:00,
2013-04-19 14:47:00,31.6,22.9,29.85,NNW,336,17.0,25.0,70,0.00,,,0.02,Wunderground v.1.15,2013-04-19 19:47:00,
2013-04-19 14:52:00,31.9,22.2,29.85,WNW,296,20.0,25.0,67,0.00,,,0.02,Wunderground v.1.15,2013-04-19 19:52:00,
2013-04-19 14:58:00,31.9,22.2,29.85,NW,325,17.0,25.0,67,0.00,,,0.02,Wunderground v.1.15,2013-04-19 19:58:00,
2013-04-19 15:03:00,31.9,22.2,29.85,NNW,330,12.0,25.0,67,0.00,,,0.02,Wunderground v.1.15,2013-04-19 20:03:00,
2013-04-19 15:08:00,31.9,22.2,29.85,NNW,345,13.0,29.0,67,0.00,,,0.03,Wunderground v.1.15,2013-04-19 20:08:00,
2013-04-19 15:13:00,32.1,22.4,29.85,NNW,340,17.0,26.0,67,0.00,,,0.03,Wunderground v.1.15,2013-04-19 20:13:00,
2013-04-19 15:18:00,32.4,22.7,29.86,NW,325,28.0,28.0,67,0.00,,,0.03,Wunderground v.1.15,2013-04-19 20:18:00,
2013-04-19 15:23:00,32.2,22.5,29.86,NNW,334,17.0,26.0,67,0.00,,,0.03,Wunderground v.1.15,2013-04-19 20:23:00,
2013-04-19 15:28:00,32.2,23.2,29.86,NW,321,17.0,26.0,69,0.00,,,0.03,Wunderground v.1.15,2013-04-19 20:28:00,
2013-04-19 15:33:00,31.9,21.8,29.86,NW,314,23.0,28.0,66,0.00,,,0.03,Wunderground v.1.15,2013-04-19 20:33:00,
2013-04-19 15:38:00,31.9,21.8,29.86,NNW,345,15.0,28.0,66,0.00,,,0.03,Wunderground v.1.15,2013-04-19 20:38:00,
2013-04-19 15:43:00,32.4,22.7,29.86,NNW,327,15.0,24.0,67,0.00,,,0.03,Wunderground v.1.15,2013-04-19 20:43:00,
2013-04-19 15:48:00,32.5,22.4,29.87,NW,312,21.0,26.0,66,0.00,,,0.03,Wunderground v.1.15,2013-04-19 20:48:00,
2013-04-19 15:53:00,32.2,22.5,29.87,NW,309,18.0,29.0,67,0.00,,,0.03,Wunderground v.1.15,2013-04-19 20:53:00,
2013-04-19 15:58:00,32.5,22.4,29.87,NNW,344,13.0,29.0,66,0.00,,,0.03,Wunderground v.1.15,2013-04-19 20:58:00,
2013-04-19 16:03:00,32.5,22.4,29.87,NNW,330,27.0,27.0,66,0.00,,,0.03,Wunderground v.1.15,2013-04-19 21:03:00,
2013-04-19 16:08:00,32.5,22.4,29.87,NNW,327,13.0,27.0,66,0.00,,,0.03,Wunderground v.1.15,2013-04-19 21:08:00,
2013-04-19 16:13:00,32.2,22.5,29.87,NW,315,14.0,27.0,67,0.00,,,0.03,Wunderground v.1.15,2013-04-19 21:13:00,
2013-04-19 16:18:00,32.2,22.1,29.88,North,351,16.0,27.0,66,0.00,,,0.03,Wunderground v.1.15,2013-04-19 21:18:00,
2013-04-19 16:23:00,32.1,22.4,29.88,NW,305,17.0,31.0,67,0.00,,,0.03,Wunderground v.1.15,2013-04-19 21:23:00,
2013-04-19 16:28:00,32.1,22.0,29.88,NNW,335,16.0,31.0,66,0.00,,,0.03,Wunderground v.1.15,2013-04-19 21:28:00,
2013-04-19 16:33:00,32.5,22.4,29.89,NW,308,20.0,26.0,66,0.00,,,0.03,Wunderground v.1.15,2013-04-19 21:33:00,
2013-04-19 16:38:00,32.5,22.8,29.89,NW,309,15.0,26.0,67,0.00,,,0.03,Wunderground v.1.15,2013-04-19 21:38:00,
2013-04-19 16:43:00,31.9,21.8,29.89,NW,312,21.0,27.0,66,0.00,,,0.03,Wunderground v.1.15,2013-04-19 21:43:00,
2013-04-19 16:48:00,31.9,21.8,29.90,NNW,348,18.0,28.0,66,0.00,,,0.03,Wunderground v.1.15,2013-04-19 21:48:00,
2013-04-19 16:53:00,32.1,22.4,29.90,NNW,336,12.0,28.0,67,0.00,,,0.03,Wunderground v.1.15,2013-04-19 21:53:00,
2013-04-19 16:58:00,32.5,22.8,29.90,NNW,327,17.0,28.0,67,0.00,,,0.03,Wunderground v.1.15,2013-04-19 21:58:00,
2013-04-19 17:03:00,32.8,23.0,29.90,WNW,298,22.0,22.0,67,0.00,,,0.03,Wunderground v.1.15,2013-04-19 22:03:00,
2013-04-19 17:08:00,32.5,22.4,29.90,NW,326,13.0,26.0,66,0.00,,,0.03,Wunderground v.1.15,2013-04-19 22:08:00,
2013-04-19 17:13:00,32.5,22.4,29.90,North,351,20.0,23.0,66,0.00,,,0.03,Wunderground v.1.15,2013-04-19 22:13:00,
2013-04-19 17:18:00,32.5,22.8,29.90,NNW,342,15.0,23.0,67,0.00,,,0.03,Wunderground v.1.15,2013-04-19 22:18:00,
2013-04-19 17:23:00,32.7,22.6,29.90,NNW,339,19.0,27.0,66,0.00,,,0.03,Wunderground v.1.15,2013-04-19 22:23:00,
2013-04-19 17:28:00,32.7,22.2,29.90,NNW,332,21.0,27.0,65,0.00,,,0.03,Wunderground v.1.15,2013-04-19 22:28:00,
2013-04-19 17:33:00,32.5,22.4,29.91,NW,306,14.0,27.0,66,0.00,,,0.03,Wunderground v.1.15,2013-04-19 22:33:00,
2013-04-19 17:38:00,32.7,22.6,29.91,NW,311,19.0,27.0,66,0.00,,,0.03,Wunderground v.1.15,2013-04-19 22:38:00,
2013-04-19 17:43:00,32.7,22.6,29.91,WNW,300,20.0,24.0,66,0.00,,,0.03,Wunderground v.1.15,2013-04-19 22:43:00,
2013-04-19 17:48:00,32.7,22.2,29.92,NW,315,19.0,27.0,65,0.00,,,0.03,Wunderground v.1.15,2013-04-19 22:48:00,
2013-04-19 17:53:00,32.7,21.9,29.92,NW,311,16.0,26.0,64,0.00,,,0.03,Wunderground v.1.15,2013-04-19 22:53:00,
2013-04-19 17:58:00,32.8,22.3,29.92,NNW,333,18.0,26.0,65,0.00,,,0.03,Wunderground v.1.15,2013-04-19 22:58:00,
2013-04-19 18:03:00,32.8,22.0,29.92,NNW,329,18.0,29.0,64,0.00,,,0.03,Wunderground v.1.15,2013-04-19 23:03:00,
2013-04-19 18:08:00,32.7,22.2,29.92,NNW,339,14.0,29.0,65,0.00,,,0.03,Wunderground v.1.15,2013-04-19 23:08:00,
2013-04-19 18:13:00,32.5,22.4,29.92,NW,304,18.0,24.0,66,0.00,,,0.03,Wunderground v.1.15,2013-04-19 23:13:00,
2013-04-19 18:18:00,32.7,22.6,29.93,NNW,336,10.0,24.0,66,0.00,,,0.03,Wunderground v.1.15,2013-04-19 23:18:00,
2013-04-19 18:23:00,32.8,22.7,29.93,North,350,17.0,23.0,66,0.00,,,0.03,Wunderground v.1.15,2013-04-19 23:23:00,
2013-04-19 18:28:00,32.8,22.7,29.93,NW,314,16.0,25.0,66,0.00,,,0.03,Wunderground v.1.15,2013-04-19 23:28:00,
2013-04-19 18:33:00,32.4,21.6,29.93,NW,325,27.0,30.0,64,0.00,,,0.03,Wunderground v.1.15,2013-04-19 23:33:00,
2013-04-19 18:38:00,31.9,21.1,29.93,NNW,336,22.0,30.0,64,0.00,,,0.03,Wunderground v.1.15,2013-04-19 23:38:00,
2013-04-19 18:43:00,31.9,21.1,29.93,NNW,333,15.0,24.0,64,0.00,,,0.03,Wunderground v.1.15,2013-04-19 23:43:00,
2013-04-19 18:48:00,31.9,21.8,29.94,NNW,332,17.0,24.0,66,0.00,,,0.03,Wunderground v.1.15,2013-04-19 23:48:00,
2013-04-19 18:54:00,31.8,22.1,29.94,North,351,14.0,20.0,67,0.00,,,0.03,Wunderground v.1.15,2013-04-19 23:54:00,
2013-04-19 18:59:00,31.8,22.1,29.94,NNW,344,14.0,20.0,67,0.00,,,0.03,Wunderground v.1.15,2013-04-19 23:59:00,
2013-04-19 19:04:00,31.6,22.6,29.95,NW,324,13.0,18.0,69,0.00,,,0.03,Wunderground v.1.15,2013-04-20 00:04:00,
2013-04-19 19:09:00,31.3,22.3,29.95,NNW,327,10.0,20.0,69,0.00,,,0.03,Wunderground v.1.15,2013-04-20 00:09:00,
2013-04-19 19:14:00,31.5,23.2,29.95,NW,315,12.0,17.0,71,0.00,,,0.03,Wunderground v.1.15,2013-04-20 00:14:00,
2013-04-19 19:19:00,31.6,22.9,29.95,NW,326,20.0,20.0,70,0.00,,,0.03,Wunderground v.1.15,2013-04-20 00:19:00,
2013-04-19 19:24:00,31.5,21.4,29.95,NNW,336,27.0,27.0,66,0.00,,,0.03,Wunderground v.1.15,2013-04-20 00:24:00,
2013-04-19 19:29:00,31.3,21.3,29.95,WNW,292,15.0,27.0,66,0.00,,,0.03,Wunderground v.1.15,2013-04-20 00:29:00,
2013-04-19 19:34:00,31.2,21.2,29.95,NW,323,22.0,23.0,66,0.00,,,0.03,Wunderground v.1.15,2013-04-20 00:34:00,
2013-04-19 19:39:00,31.2,21.2,29.95,NNW,348,19.0,23.0,66,0.00,,,0.03,Wunderground v.1.15,2013-04-20 00:39:00,
2013-04-19 19:44:00,31.0,21.3,29.95,NNW,340,19.0,23.0,67,0.00,,,0.03,Wunderground v.1.15,2013-04-20 00:44:00,
2013-04-19 19:49:00,30.9,21.6,29.96,WNW,302,17.0,23.0,68,0.00,,,0.03,Wunderground v.1.15,2013-04-20 00:49:00,
2013-04-19 19:54:00,30.7,21.7,29.96,NW,314,12.0,18.0,69,0.00,,,0.03,Wunderground v.1.15,2013-04-20 00:54:00,
2013-04-19 19:59:00,30.6,22.0,29.96,NW,319,11.0,19.0,70,0.00,,,0.03,Wunderground v.1.15,2013-04-20 00:59:00,
2013-04-19 20:04:00,30.4,21.8,29.97,NW,314,12.0,22.0,70,0.00,,,0.03,Wunderground v.1.15,2013-04-20 01:04:00,
2013-04-19 20:09:00,30.3,21.7,29.97,NNW,329,15.0,23.0,70,0.00,,,0.03,Wunderground v.1.15,2013-04-20 01:09:00,
2013-04-19 20:14:00,30.1,21.2,29.97,NW,310,11.0,20.0,69,0.00,,,0.03,Wunderground v.1.15,2013-04-20 01:14:00,
2013-04-19 20:19:00,30.1,21.5,29.97,NW,323,12.0,21.0,70,0.00,,,0.03,Wunderground v.1.15,2013-04-20 01:19:00,
2013-04-19 20:24:00,30.0,21.4,29.97,NNW,333,16.0,21.0,70,0.00,,,0.03,Wunderground v.1.15,2013-04-20 01:24:00,
2013-04-19 20:29:00,29.8,21.5,29.98,NNW,332,18.0,21.0,71,0.00,,,0.03,Wunderground v.1.15,2013-04-20 01:29:00,
2013-04-19 20:34:00,29.7,21.4,29.98,NNW,336,15.0,19.0,71,0.00,,,0.03,Wunderground v.1.15,2013-04-20 01:34:00,
2013-04-19 20:40:00,29.5,21.6,29.98,NNW,331,8.0,13.0,72,0.00,,,0.03,Wunderground v.1.15,2013-04-20 01:40:00,
2013-04-19 20:45:00,29.4,21.8,29.99,NW,317,6.0,17.0,73,0.00,,,0.03,Wunderground v.1.15,2013-04-20 01:45:00,
2013-04-19 20:50:00,29.3,21.7,29.99,NW,325,11.0,11.0,73,0.00,,,0.03,Wunderground v.1.15,2013-04-20 01:50:00,
2013-04-19 20:55:00,29.1,21.8,29.99,NW,307,10.0,14.0,74,0.00,,,0.03,Wunderground v.1.15,2013-04-20 01:55:00,
2013-04-19 21:00:00,29.0,21.7,30.00,NNW,336,7.0,8.0,74,0.00,,,0.03,Wunderground v.1.15,2013-04-20 02:00:00,
2013-04-19 21:05:00,28.8,21.9,30.00,NW,314,10.0,14.0,75,0.00,,,0.03,Wunderground v.1.15,2013-04-20 02:05:00,
2013-04-19 21:10:00,28.8,21.6,30.00,NW,319,12.0,12.0,74,0.00,,,0.03,Wunderground v.1.15,2013-04-20 02:10:00,
2013-04-19 21:15:00,28.8,21.6,30.00,NW,306,9.0,15.0,74,0.00,,,0.03,Wunderground v.1.15,2013-04-20 02:15:00,
2013-04-19 21:20:00,28.8,21.6,30.00,NNW,330,11.0,11.0,74,0.00,,,0.03,Wunderground v.1.15,2013-04-20 02:20:00,
2013-04-19 21:25:00,28.7,21.5,30.00,NW,318,10.0,15.0,74,0.00,,,0.03,Wunderground v.1.15,2013-04-20 02:25:00,
2013-04-19 21:30:00,28.5,21.3,30.01,NNW,329,9.0,10.0,74,0.00,,,0.03,Wunderground v.1.15,2013-04-20 02:30:00,
2013-04-19 21:35:00,28.5,21.3,30.01,NW,319,9.0,13.0,74,0.00,,,0.03,Wunderground v.1.15,2013-04-20 02:35:00,
2013-04-19 21:40:00,28.4,21.2,30.01,NW,314,6.0,11.0,74,0.00,,,0.03,Wunderground v.1.15,2013-04-20 02:40:00,
2013-04-19 21:45:00,28.2,21.3,30.02,NW,317,5.0,11.0,75,0.00,,,0.03,Wunderground v.1.15,2013-04-20 02:45:00,
2013-04-19 21:50:00,27.9,21.3,30.02,NNW,340,6.0,9.0,76,0.00,,,0.03,Wunderground v.1.15,2013-04-20 02:50:00,
2013-04-19 21:55:00,27.8,21.5,30.02,NNW,329,9.0,11.0,77,0.00,,,0.03,Wunderground v.1.15,2013-04-20 02:55:00,
2013-04-19 22:00:00,27.6,21.3,30.02,NW,313,7.0,8.0,77,0.00,,,0.03,Wunderground v.1.15,2013-04-20 03:00:00,
2013-04-19 22:05:00,27.6,21.3,30.02,NNW,328,10.0,13.0,77,0.00,,,0.03,Wunderground v.1.15,2013-04-20 03:05:00,
2013-04-19 22:10:00,27.8,21.2,30.02,NNW,330,9.0,12.0,76,0.00,,,0.03,Wunderground v.1.15,2013-04-20 03:10:00,
2013-04-19 22:15:00,27.8,21.2,30.03,NNW,328,11.0,15.0,76,0.00,,,0.03,Wunderground v.1.15,2013-04-20 03:15:00,
2013-04-19 22:20:00,27.8,20.9,30.03,NW,317,9.0,15.0,75,0.00,,,0.03,Wunderground v.1.15,2013-04-20 03:20:00,
2013-04-19 22:25:00,27.6,20.7,30.03,NW,326,11.0,16.0,75,0.00,,,0.03,Wunderground v.1.15,2013-04-20 03:25:00,
2013-04-19 22:31:00,27.6,20.7,30.03,NNW,341,12.0,13.0,75,0.00,,,0.03,Wunderground v.1.15,2013-04-20 03:31:00,
2013-04-19 22:36:00,27.5,20.6,30.03,NW,323,10.0,13.0,75,0.00,,,0.03,Wunderground v.1.15,2013-04-20 03:36:00,
2013-04-19 22:41:00,27.3,20.4,30.03,NNW,333,6.0,10.0,75,0.00,,,0.03,Wunderground v.1.15,2013-04-20 03:41:00,
2013-04-19 22:46:00,27.2,20.3,30.03,NW,323,12.0,16.0,75,0.00,,,0.03,Wunderground v.1.15,2013-04-20 03:46:00,
2013-04-19 22:51:00,27.0,20.1,30.03,NW,325,6.0,11.0,75,0.00,,,0.03,Wunderground v.1.15,2013-04-20 03:51:00,
2013-04-19 22:56:00,26.9,20.0,30.03,NW,323,9.0,11.0,75,0.00,,,0.03,Wunderground v.1.15,2013-04-20 03:56:00,
2013-04-19 23:01:00,26.7,19.8,30.03,NW,318,6.0,10.0,75,0.00,,,0.03,Wunderground v.1.15,2013-04-20 04:01:00,
2013-04-19 23:06:00,26.6,20.1,30.03,NW,321,6.0,10.0,76,0.00,,,0.03,Wunderground v.1.15,2013-04-20 04:06:00,
2013-04-19 23:07:00,26.6,20.1,30.03,NW,310,3.0,10.0,76,0.00,,,0.03,Wunderground v.1.15,2013-04-20 04:07:00,
2013-04-19 23:12:00,26.3,19.8,30.03,NW,321,6.0,10.0,76,0.00,,,0.03,Wunderground v.1.15,2013-04-20 04:12:00,
2013-04-19 23:15:00,26.3,19.8,30.03,WNW,299,5.0,10.0,76,0.00,,,0.03,Wunderground v.1.15,2013-04-20 04:15:00,
2013-04-19 23:20:00,26.3,20.1,30.03,NW,322,5.0,9.0,77,0.00,,,0.03,Wunderground v.1.15,2013-04-20 04:20:00,
2013-04-19 23:25:00,26.3,19.8,30.03,NW,320,5.0,12.0,76,0.00,,,0.03,Wunderground v.1.15,2013-04-20 04:25:00,
2013-04-19 23:30:00,26.1,19.6,30.04,West,279,1.0,6.0,76,0.00,,,0.03,Wunderground v.1.15,2013-04-20 04:30:00,
2013-04-19 23:35:00,26.0,19.5,30.04,NW,306,3.0,6.0,76,0.00,,,0.03,Wunderground v.1.15,2013-04-20 04:35:00,
2013-04-19 23:40:00,25.7,19.5,30.04,NW,322,3.0,6.0,77,0.00,,,0.03,Wunderground v.1.15,2013-04-20 04:40:00,
2013-04-19 23:45:00,25.4,19.2,30.04,NW,317,4.0,6.0,77,0.00,,,0.03,Wunderground v.1.15,2013-04-20 04:45:00,
2013-04-19 23:50:00,25.3,19.1,30.04,NW,311,5.0,7.0,77,0.00,,,0.03,Wunderground v.1.15,2013-04-20 04:50:00,
2013-04-19 23:56:00,25.1,18.9,30.04,WNW,302,6.0,10.0,77,0.00,,,0.03,Wunderground v.1.15,2013-04-20 04:56:00,